Time,TemperatureF,DewpointF,PressureIn,WindDirection,WindDirectionDegrees,WindSpeedMPH,WindSpeedGustMPH,Humidity,HourlyPrecipIn,Conditions,Clouds,dailyrainin,SoftwareType,DateUTC
2013-05-28 00:03:00,63.0,62.0,29.91,SSE,166,5.0,7.0,98,0.00,,,1.61,,2013-05-28 04:03:00,
2013-05-28 00:13:00,63.0,62.0,29.91,SSE,166,5.0,7.0,98,0.00,,,1.61,,2013-05-28 04:13:00,
2013-05-28 00:22:00,63.0,62.0,29.91,South,181,5.0,7.0,98,0.00,,,1.61,,2013-05-28 04:22:00,
2013-05-28 00:33:00,63.0,62.0,29.91,South,181,5.0,7.0,98,0.00,,,1.61,,2013-05-28 04:33:00,
2013-05-28 00:43:00,63.0,62.0,29.91,South,181,5.0,7.0,98,0.00,,,1.61,,2013-05-28 04:43:00,
2013-05-28 00:53:00,62.0,61.0,29.91,South,180,0.0,0.0,98,0.00,,,1.61,,2013-05-28 04:53:00,
2013-05-28 01:02:00,62.0,61.0,29.91,South,180,4.0,6.0,98,0.00,,,1.61,,2013-05-28 05:02:00,
2013-05-28 01:12:00,62.0,61.0,29.91,South,180,4.0,6.0,98,0.00,,,1.61,,2013-05-28 05:12:00,
2013-05-28 01:22:00,63.0,62.0,29.91,SSE,168,6.0,10.0,98,0.00,,,1.61,,2013-05-28 05:22:00,
2013-05-28 01:33:00,63.0,62.0,29.90,SSE,165,6.0,9.0,98,0.00,,,1.61,,2013-05-28 05:33:00,
2013-05-28 01:42:00,63.0,62.0,29.90,SSE,165,6.0,9.0,98,0.00,,,1.61,,2013-05-28 05:42:00,
2013-05-28 01:52:00,63.0,62.0,29.91,South,170,7.0,10.0,98,0.00,,,1.61,,2013-05-28 05:52:00,
2013-05-28 02:02:00,63.0,62.0,29.91,South,171,6.0,7.0,98,0.00,,,1.61,,2013-05-28 06:02:00,
2013-05-28 02:12:00,63.0,62.0,29.91,South,171,6.0,7.0,98,0.00,,,1.61,,2013-05-28 06:12:00,
2013-05-28 02:22:00,63.0,62.0,29.91,South,179,6.0,8.0,98,0.00,,,1.61,,2013-05-28 06:22:00,
2013-05-28 02:32:00,63.0,62.0,29.91,South,183,5.0,8.0,98,0.01,,,1.62,,2013-05-28 06:32:00,
2013-05-28 02:42:00,63.0,62.0,29.91,South,183,5.0,8.0,98,0.01,,,1.62,,2013-05-28 06:42:00,
2013-05-28 02:52:00,63.0,62.0,29.91,South,184,4.0,7.0,98,0.01,,,1.62,,2013-05-28 06:52:00,
2013-05-28 03:01:00,63.0,62.0,29.91,South,191,5.0,9.0,98,0.01,,,1.62,,2013-05-28 07:01:00,
2013-05-28 03:11:00,63.0,62.0,29.91,South,191,5.0,9.0,98,0.01,,,1.62,,2013-05-28 07:11:00,
2013-05-28 03:21:00,63.0,62.0,29.92,SSW,198,5.0,7.0,98,0.01,,,1.62,,2013-05-28 07:21:00,
2013-05-28 03:32:00,63.0,62.0,29.92,SSW,202,6.0,9.0,98,0.00,,,1.62,,2013-05-28 07:32:00,
2013-05-28 03:42:00,63.0,62.0,29.92,SSW,202,6.0,9.0,98,0.00,,,1.62,,2013-05-28 07:42:00,
2013-05-28 03:52:00,63.0,62.0,29.92,SW,234,6.0,12.0,98,0.02,,,1.64,,2013-05-28 07:52:00,
2013-05-28 04:02:00,64.0,63.0,29.92,West,261,4.0,11.0,98,0.24,,,1.86,,2013-05-28 08:02:00,
2013-05-28 04:12:00,64.0,63.0,29.92,West,261,4.0,11.0,98,0.24,,,1.86,,2013-05-28 08:12:00,
2013-05-28 04:22:00,64.0,63.0,29.90,WSW,252,0.0,5.0,98,0.28,,,1.90,,2013-05-28 08:22:00,
2013-05-28 04:32:00,64.0,63.0,29.92,WSW,252,5.0,6.0,98,0.28,,,1.90,,2013-05-28 08:32:00,
2013-05-28 04:42:00,64.0,63.0,29.92,WSW,252,5.0,6.0,98,0.28,,,1.90,,2013-05-28 08:42:00,
2013-05-28 04:52:00,64.0,63.0,29.91,WSW,252,0.0,3.0,98,0.27,,,1.91,,2013-05-28 08:52:00,
2013-05-28 05:01:00,63.0,62.0,29.90,WSW,252,0.0,0.0,98,0.10,,,1.86,,2013-05-28 09:01:00,
2013-05-28 05:11:00,63.0,62.0,29.90,WSW,252,0.0,0.0,98,0.10,,,1.86,,2013-05-28 09:11:00,
2013-05-28 05:21:00,63.0,62.0,29.91,WSW,252,0.0,0.0,98,0.01,,,1.86,,2013-05-28 09:21:00,
2013-05-28 05:33:00,63.0,62.0,29.91,WSW,252,0.0,0.0,98,0.01,,,1.86,,2013-05-28 09:33:00,
2013-05-28 05:43:00,63.0,62.0,29.91,WSW,252,0.0,0.0,98,0.01,,,1.86,,2013-05-28 09:43:00,
2013-05-28 05:54:00,63.0,62.0,29.91,WSW,252,1.0,5.0,98,0.00,,,1.86,,2013-05-28 09:54:00,
2013-05-28 06:03:00,62.0,61.0,29.91,WSW,252,2.0,5.0,98,0.00,,,1.64,,2013-05-28 10:03:00,
2013-05-28 06:12:00,62.0,61.0,29.91,WSW,252,2.0,5.0,98,0.00,,,1.64,,2013-05-28 10:12:00,
2013-05-28 06:23:00,62.0,61.0,29.91,WSW,244,6.0,7.0,98,0.00,,,1.64,,2013-05-28 10:23:00,
2013-05-28 06:32:00,63.0,62.0,29.91,SSE,150,7.0,11.0,98,0.00,,,1.64,,2013-05-28 10:32:00,
2013-05-28 06:43:00,63.0,62.0,29.91,SSE,150,7.0,11.0,98,0.00,,,1.64,,2013-05-28 10:43:00,
2013-05-28 06:53:00,63.0,62.0,29.91,SE,144,6.0,10.0,98,0.00,,,1.64,,2013-05-28 10:53:00,
2013-05-28 07:02:00,63.0,62.0,29.91,SE,144,6.0,10.0,98,0.00,,,1.53,,2013-05-28 11:02:00,
2013-05-28 07:11:00,63.0,62.0,29.91,SE,144,6.0,10.0,98,0.00,,,1.53,,2013-05-28 11:11:00,
2013-05-28 07:22:00,63.0,62.0,29.91,SE,144,5.0,9.0,98,0.00,,,1.53,,2013-05-28 11:22:00,
2013-05-28 07:32:00,63.0,62.0,29.91,South,174,9.0,10.0,98,0.00,,,1.53,,2013-05-28 11:32:00,
2013-05-28 07:42:00,63.0,62.0,29.91,South,174,9.0,10.0,98,0.00,,,1.53,,2013-05-28 11:42:00,
2013-05-28 07:52:00,63.0,62.0,29.91,South,188,7.0,13.0,98,0.00,,,1.53,,2013-05-28 11:52:00,
2013-05-28 08:02:00,64.0,63.0,29.91,South,186,11.0,16.0,97,0.00,,,1.37,,2013-05-28 12:02:00,
2013-05-28 08:11:00,64.0,63.0,29.91,South,186,11.0,16.0,97,0.00,,,1.37,,2013-05-28 12:11:00,
2013-05-28 08:21:00,65.0,64.0,29.91,SSW,200,12.0,16.0,97,0.00,,,1.37,,2013-05-28 12:21:00,
2013-05-28 08:32:00,65.0,64.0,29.91,SSW,203,14.0,20.0,95,0.00,,,1.37,,2013-05-28 12:32:00,
2013-05-28 08:42:00,65.0,64.0,29.91,SSW,203,14.0,20.0,95,0.00,,,1.37,,2013-05-28 12:42:00,
2013-05-28 08:52:00,66.0,64.0,29.92,SW,216,14.0,19.0,94,0.00,,,1.37,,2013-05-28 12:52:00,
2013-05-28 09:01:00,66.0,64.0,29.92,SW,221,14.0,17.0,93,0.00,,,1.32,,2013-05-28 13:01:00,
2013-05-28 09:11:00,66.0,64.0,29.92,SW,221,14.0,17.0,93,0.00,,,1.32,,2013-05-28 13:11:00,
2013-05-28 09:22:00,67.0,64.0,29.92,SW,222,13.0,20.0,91,0.00,,,1.32,,2013-05-28 13:22:00,
2013-05-28 09:32:00,68.0,65.0,29.90,SSW,213,18.0,22.0,89,0.00,,,1.32,,2013-05-28 13:32:00,
2013-05-28 09:42:00,68.0,65.0,29.90,SSW,213,18.0,22.0,89,0.00,,,1.32,,2013-05-28 13:42:00,
2013-05-28 09:52:00,69.0,66.0,29.90,SSW,213,16.0,22.0,89,0.00,,,1.32,,2013-05-28 13:52:00,
2013-05-28 10:02:00,69.0,65.0,29.90,SSW,211,16.0,24.0,88,0.00,,,1.32,,2013-05-28 14:02:00,
2013-05-28 10:12:00,69.0,65.0,29.90,SSW,211,16.0,24.0,88,0.00,,,1.32,,2013-05-28 14:12:00,
2013-05-28 10:21:00,69.0,65.0,29.90,SSW,211,16.0,24.0,88,0.00,,,1.32,,2013-05-28 14:21:00,
2013-05-28 10:32:00,70.0,66.0,29.90,SSW,210,14.0,21.0,87,0.00,,,1.32,,2013-05-28 14:32:00,
2013-05-28 10:42:00,70.0,66.0,29.90,SSW,210,14.0,21.0,87,0.00,,,1.32,,2013-05-28 14:42:00,
2013-05-28 10:52:00,71.0,67.0,29.90,SSW,212,16.0,25.0,87,0.00,,,1.32,,2013-05-28 14:52:00,
2013-05-28 11:01:00,71.0,67.0,29.90,SSW,212,16.0,25.0,87,0.00,,,1.32,,2013-05-28 15:01:00,
2013-05-28 11:11:00,71.0,67.0,29.90,SSW,212,16.0,25.0,87,0.00,,,1.32,,2013-05-28 15:11:00,
2013-05-28 11:21:00,72.0,68.0,29.90,SW,215,18.0,24.0,86,0.00,,,1.32,,2013-05-28 15:21:00,
2013-05-28 11:33:00,72.0,68.0,29.90,SW,215,18.0,24.0,86,0.00,,,1.32,,2013-05-28 15:33:00,
2013-05-28 11:43:00,72.0,68.0,29.90,SW,215,18.0,24.0,86,0.00,,,1.32,,2013-05-28 15:43:00,
2013-05-28 11:53:00,73.0,69.0,29.89,SW,228,18.0,24.0,86,0.00,,,1.32,,2013-05-28 15:53:00,
2013-05-28 12:03:00,73.0,68.0,29.89,SW,227,24.0,26.0,85,0.00,,,1.32,,2013-05-28 16:03:00,
2013-05-28 12:13:00,73.0,68.0,29.89,SW,227,24.0,26.0,85,0.00,,,1.32,,2013-05-28 16:13:00,
2013-05-28 12:23:00,73.0,68.0,29.90,SW,227,22.0,26.0,84,0.00,,,1.32,,2013-05-28 16:23:00,
2013-05-28 12:33:00,73.0,68.0,29.90,WSW,241,20.0,27.0,84,0.00,,,1.32,,2013-05-28 16:33:00,
2013-05-28 12:42:00,73.0,68.0,29.90,WSW,241,20.0,27.0,84,0.00,,,1.32,,2013-05-28 16:42:00,
2013-05-28 12:53:00,74.0,68.0,29.89,SW,225,25.0,30.0,83,0.00,,,1.32,,2013-05-28 16:53:00,
2013-05-28 13:02:00,74.0,69.0,29.88,SW,218,21.0,29.0,84,0.00,,,1.32,,2013-05-28 17:02:00,
2013-05-28 13:12:00,74.0,69.0,29.88,SW,218,21.0,29.0,84,0.00,,,1.32,,2013-05-28 17:12:00,
2013-05-28 13:22:00,74.0,69.0,29.88,SW,218,21.0,29.0,84,0.00,,,1.32,,2013-05-28 17:22:00,
2013-05-28 13:32:00,75.0,69.0,29.85,SSW,213,22.0,31.0,82,0.00,,,1.32,,2013-05-28 17:32:00,
2013-05-28 13:42:00,75.0,69.0,29.86,SW,225,15.0,23.0,82,0.00,,,1.32,,2013-05-28 17:42:00,
2013-05-28 13:52:00,75.0,69.0,29.86,SW,225,15.0,23.0,82,0.00,,,1.32,,2013-05-28 17:52:00,
2013-05-28 14:01:00,76.0,70.0,29.85,SW,229,17.0,22.0,83,0.00,,,1.11,,2013-05-28 18:01:00,
2013-05-28 14:11:00,76.0,70.0,29.85,SW,229,17.0,22.0,83,0.00,,,1.11,,2013-05-28 18:11:00,
2013-05-28 14:22:00,77.0,71.0,29.85,SW,223,20.0,27.0,81,0.00,,,1.11,,2013-05-28 18:22:00,
2013-05-28 14:32:00,77.0,71.0,29.85,SW,223,20.0,27.0,81,0.00,,,1.11,,2013-05-28 18:32:00,
2013-05-28 14:42:00,79.0,70.0,29.85,WSW,240,25.0,33.0,75,0.00,,,1.11,,2013-05-28 18:42:00,
2013-05-28 14:52:00,79.0,70.0,29.85,WSW,240,25.0,33.0,75,0.00,,,1.11,,2013-05-28 18:52:00,
2013-05-28 15:01:00,78.0,69.0,29.85,SW,221,28.0,33.0,74,0.00,,,1.11,,2013-05-28 19:01:00,
2013-05-28 15:11:00,78.0,69.0,29.85,SW,221,28.0,33.0,74,0.00,,,1.11,,2013-05-28 19:11:00,
2013-05-28 15:21:00,78.0,69.0,29.86,SW,236,21.0,30.0,75,0.00,,,1.11,,2013-05-28 19:21:00,
2013-05-28 15:32:00,78.0,69.0,29.86,SW,229,22.0,29.0,74,0.00,,,1.11,,2013-05-28 19:32:00,
2013-05-28 15:42:00,78.0,69.0,29.86,SW,229,22.0,29.0,74,0.00,,,1.11,,2013-05-28 19:42:00,
2013-05-28 15:52:00,78.0,69.0,29.87,SW,219,23.0,29.0,74,0.00,,,1.11,,2013-05-28 19:52:00,
2013-05-28 16:02:00,78.0,69.0,29.88,SW,223,14.0,30.0,74,0.00,,,1.10,,2013-05-28 20:02:00,
2013-05-28 16:11:00,78.0,69.0,29.88,SW,223,14.0,30.0,74,0.00,,,1.10,,2013-05-28 20:11:00,
2013-05-28 16:22:00,78.0,69.0,29.88,SW,226,20.0,22.0,75,0.00,,,1.10,,2013-05-28 20:22:00,
2013-05-28 16:32:00,79.0,70.0,29.87,SW,227,20.0,24.0,73,0.00,,,1.10,,2013-05-28 20:32:00,
2013-05-28 16:42:00,79.0,70.0,29.87,SW,227,20.0,24.0,73,0.00,,,1.10,,2013-05-28 20:42:00,
2013-05-28 16:52:00,78.0,69.0,29.87,SW,225,19.0,23.0,75,0.00,,,1.10,,2013-05-28 20:52:00,
2013-05-28 17:02:00,79.0,71.0,29.87,SW,217,14.0,22.0,76,0.00,,,0.92,,2013-05-28 21:02:00,
2013-05-28 17:11:00,79.0,71.0,29.86,SW,222,10.0,23.0,77,0.00,,,0.92,,2013-05-28 21:11:00,
2013-05-28 17:21:00,79.0,71.0,29.86,SW,222,10.0,23.0,77,0.00,,,0.92,,2013-05-28 21:21:00,
2013-05-28 17:33:00,78.0,70.0,29.86,SSW,210,18.0,22.0,76,0.00,,,0.92,,2013-05-28 21:33:00,
2013-05-28 17:43:00,78.0,70.0,29.86,SW,218,17.0,22.0,76,0.00,,,0.92,,2013-05-28 21:43:00,
2013-05-28 17:53:00,78.0,70.0,29.86,SW,218,17.0,22.0,76,0.00,,,0.92,,2013-05-28 21:53:00,
2013-05-28 18:02:00,78.0,70.0,29.87,SW,226,16.0,22.0,76,0.00,,,0.87,,2013-05-28 22:02:00,
2013-05-28 18:13:00,78.0,70.0,29.86,SW,221,13.0,19.0,76,0.00,,,0.87,,2013-05-28 22:13:00,
2013-05-28 18:22:00,78.0,70.0,29.86,SW,221,13.0,19.0,76,0.00,,,0.87,,2013-05-28 22:22:00,
2013-05-28 18:33:00,78.0,70.0,29.87,SW,217,13.0,20.0,76,0.00,,,0.87,,2013-05-28 22:33:00,
2013-05-28 18:42:00,79.0,70.0,29.87,SSW,206,13.0,17.0,75,0.00,,,0.87,,2013-05-28 22:42:00,
2013-05-28 18:52:00,79.0,70.0,29.87,SSW,206,13.0,17.0,75,0.00,,,0.87,,2013-05-28 22:52:00,
2013-05-28 19:02:00,79.0,70.0,29.86,SW,217,14.0,24.0,75,0.00,,,0.82,,2013-05-28 23:02:00,
2013-05-28 19:11:00,79.0,70.0,29.85,SW,227,16.0,22.0,73,0.00,,,0.82,,2013-05-28 23:11:00,
2013-05-28 19:22:00,79.0,70.0,29.85,SW,227,16.0,22.0,73,0.00,,,0.82,,2013-05-28 23:22:00,
2013-05-28 19:32:00,78.0,69.0,29.86,SW,215,14.0,21.0,75,0.00,,,0.82,,2013-05-28 23:32:00,
2013-05-28 19:42:00,78.0,69.0,29.86,SW,215,14.0,21.0,75,0.00,,,0.82,,2013-05-28 23:42:00,
2013-05-28 19:52:00,78.0,70.0,29.86,SW,218,16.0,20.0,76,0.00,,,0.82,,2013-05-28 23:52:00,
2013-05-28 20:02:00,78.0,70.0,29.86,WSW,237,14.0,20.0,76,0.00,,,0.64,,2013-05-29 00:02:00,
2013-05-28 20:11:00,78.0,70.0,29.86,WSW,237,14.0,20.0,76,0.00,,,0.64,,2013-05-29 00:11:00,
2013-05-28 20:22:00,77.0,69.0,29.87,SW,232,13.0,18.0,76,0.00,,,0.64,,2013-05-29 00:22:00,
2013-05-28 20:32:00,77.0,69.0,29.86,SW,215,15.0,19.0,76,0.00,,,0.64,,2013-05-29 00:32:00,
2013-05-28 20:42:00,77.0,69.0,29.86,SW,215,15.0,19.0,76,0.00,,,0.64,,2013-05-29 00:42:00,
2013-05-28 20:52:00,77.0,69.0,29.86,SW,215,15.0,19.0,76,0.00,,,0.64,,2013-05-29 00:52:00,
2013-05-28 21:01:00,76.0,69.0,29.85,SSW,200,13.0,22.0,78,0.00,,,0.50,,2013-05-29 01:01:00,
2013-05-28 21:11:00,76.0,69.0,29.85,SSW,200,13.0,22.0,78,0.00,,,0.50,,2013-05-29 01:11:00,
2013-05-28 21:22:00,75.0,68.0,29.85,SSW,201,11.0,16.0,79,0.00,,,0.50,,2013-05-29 01:22:00,
2013-05-28 21:32:00,74.0,67.0,29.85,SSW,202,14.0,15.0,80,0.00,,,0.50,,2013-05-29 01:32:00,
2013-05-28 21:42:00,74.0,67.0,29.85,SSW,202,14.0,15.0,80,0.00,,,0.50,,2013-05-29 01:42:00,
2013-05-28 21:52:00,74.0,67.0,29.85,SSW,202,14.0,15.0,80,0.00,,,0.50,,2013-05-29 01:52:00,
2013-05-28 22:02:00,74.0,67.0,29.85,SSW,211,10.0,18.0,80,0.00,,,0.32,,2013-05-29 02:02:00,
2013-05-28 22:12:00,74.0,67.0,29.85,SSW,211,10.0,18.0,80,0.00,,,0.32,,2013-05-29 02:12:00,
2013-05-28 22:21:00,74.0,67.0,29.85,SSW,211,10.0,18.0,80,0.00,,,0.32,,2013-05-29 02:21:00,
2013-05-28 22:32:00,74.0,67.0,29.85,SSW,211,10.0,18.0,80,0.00,,,0.32,,2013-05-29 02:32:00,
2013-05-28 22:42:00,73.0,67.0,29.87,SSW,203,12.0,16.0,82,0.00,,,0.32,,2013-05-29 02:42:00,
2013-05-28 22:52:00,73.0,67.0,29.87,SSW,203,12.0,16.0,82,0.00,,,0.32,,2013-05-29 02:52:00,
2013-05-28 23:02:00,73.0,67.0,29.88,SSW,209,12.0,15.0,82,0.00,,,0.30,,2013-05-29 03:02:00,
2013-05-28 23:12:00,73.0,67.0,29.88,SSW,209,12.0,15.0,82,0.00,,,0.30,,2013-05-29 03:12:00,
2013-05-28 23:21:00,73.0,68.0,29.88,SSW,200,11.0,17.0,83,0.00,,,0.30,,2013-05-29 03:21:00,
2013-05-28 23:33:00,73.0,68.0,29.88,SSW,200,11.0,17.0,83,0.00,,,0.30,,2013-05-29 03:33:00,
2013-05-28 23:43:00,73.0,68.0,29.88,SSW,200,11.0,17.0,83,0.00,,,0.30,,2013-05-29 03:43:00,
2013-05-28 23:53:00,72.0,67.0,29.90,SW,216,10.0,13.0,84,0.00,,,0.30,,2013-05-29 03:53:00,